Location: Unspecified
(0.0000°N, 0.0000°E)
Time: 10:45:57
(UTC+01:00)

SWIFT - Visible Passes

Search period start: 23 January 2018 00:00
Search period end: 02 February 2018 00:00
Orbit: 546 x 562 km, 20.6° (Epoch: 22 January)

Date Brightness Start Highest point End Pass type
(mag) Time Alt. Az. Time Alt. Az. Time Alt. Az.
23 Jan 4.2 05:25:40 21° NNE 05:25:40 21° NNE 05:28:22 10° ENE visible
23 Jan 4.0 20:43:02 10° WNW 20:46:24 22° NNW 20:46:39 22° NNW visible
24 Jan 3.9 05:20:30 26° NE 05:20:30 26° NE 05:23:15 10° E visible
24 Jan 4.3 20:38:05 10° WNW 20:40:53 17° NNW 20:41:29 17° N visible
25 Jan 3.8 05:15:20 31° ENE 05:15:20 31° ENE 05:18:00 10° E visible
25 Jan 4.6 20:33:22 10° NW 20:35:25 13° NNW 20:36:19 12° N visible
26 Jan 3.9 05:10:09 32° E 05:10:09 32° E 05:12:37 10° E visible
26 Jan 3.4 06:46:37 10° W 06:50:26 34° SSW 06:54:16 10° SE visible
26 Jan 4.8 20:29:32 10° NNW 20:29:59 10° NNW 20:30:25 10° N visible
27 Jan 4.2 05:04:58 29° ESE 05:04:58 29° ESE 05:07:08 10° ESE visible
27 Jan 3.9 06:41:26 10° WSW 06:44:54 25° SSW 06:48:24 10° SE visible
28 Jan 4.5 04:59:47 24° ESE 04:59:47 24° ESE 05:01:33 10° ESE visible
28 Jan 4.3 06:36:23 10° WSW 06:39:24 19° SSW 06:42:25 10° SSE visible
29 Jan 4.9 04:54:34 19° SE 04:54:34 19° SE 04:55:52 10° SE visible
29 Jan 4.6 06:31:34 10° SW 06:33:55 14° SSW 06:36:16 10° SSE visible
30 Jan 5.2 04:49:20 14° SE 04:49:20 14° SE 04:50:05 10° SE visible
30 Jan 4.8 06:27:11 10° SW 06:28:28 11° SSW 06:29:45 10° S visible
31 Jan 5.5 04:44:06 11° SE 04:44:06 11° SE 04:44:13 10° SE visible
